Location: Roland
(31.1349°N, 85.4372°W)
Time: 17:54:21
(UTC+00:00)

SR - Pass Details

Date: 14 April 2021
Orbit: 573 x 882 km, 66.7° (Epoch: 12 May)

Event Time Altitude Azimuth Distance (km) Brightness Sun altitude
Rises 23:27:49 0° 338° (NNW) 3,444 ? 8.0°
Reaches altitude 10° 23:30:24 10° 342° (NNW) 2,477 ? 7.5°
Maximum altitude 23:36:05 61° 63° (ENE) 916 ? 6.3°
Drops below altitude 10° 23:41:18 10° 143° (SE) 2,288 ? 5.2°
Sets 23:43:36 0° 147° (SSE) 3,161 ? 4.7°
